Simultaneous Nadir Overpasses (SNOs) Predictions

Prediction of SNOs between GOES-15 and NOAA-20 Satellite Orbit:

Table of predicted SNOs for the next 14.0 days since TLE Epoch: 1/6/2024
Index Date Time (GOES-15) GOES-15 Lat,Lon NOAA-20 Lat,Lon Distance(km) Time Diff (sec)
1 01/06/2024 09:33:49 0.05, 61.47 -0.79, 57.64 437.15 80
2 01/07/2024 09:17:44 0.05, 61.49 0.21, 62.17 78.30 80
3 01/09/2024 21:20:46 -0.04, 61.44 -0.05, 61.44 0.74 80
4 01/12/2024 09:21:15 0.04, 61.60 -0.19, 60.69 104.35 80
5 01/13/2024 09:05:09 0.03, 61.62 0.81, 65.23 410.11 80
6 01/14/2024 21:26:56 -0.04, 61.56 0.34, 59.96 183.30 80
7 01/15/2024 21:05:31 -0.04, 61.59 -0.67, 64.49 330.55 80
8 01/17/2024 09:27:26 0.04, 61.73 -0.50, 59.19 289.01 80
9 01/18/2024 09:11:21 0.04, 61.76 0.51, 63.73 225.28 80
10 01/19/2024 21:33:07 -0.04, 61.69 0.70, 58.47 367.45 80
